| time (UTC) | temp C | wind direction | speed KPH | gust KPH | rain 1hr cm | rain 24hr cm | rain mn cm | humidity % | barometer mb |
| 20260903050002 | 13 | 286 | 14.5 | 0.0 | 0.00 | 0.00 | 1.07 | 77 | 1006.9 |
| 20260903044551 | 14 | 286 | 14.5 | 0.0 | 0.00 | 0.00 | 1.07 | 76 | 1006.5 |
| 20260903043043 | 15 | 279 | 16.1 | 0.0 | 0.00 | 0.00 | 1.07 | 73 | 1006.7 |
| 20260903041532 | 16 | 277 | 14.5 | 0.0 | 0.00 | 0.00 | 1.07 | 71 | 1006.4 |
| 20260903040026 | 16 | 294 | 11.3 | 0.0 | 0.00 | 0.00 | 1.07 | 74 | 1006.0 |
| 20260903034508 | 16 | 304 | 9.7 | 0.0 | 0.00 | 0.00 | 1.07 | 76 | 1005.5 |
| 20260903033014 | 16 | 296 | 6.4 | 0.0 | 0.00 | 0.00 | 1.07 | 76 | 1005.6 |
| 20260903031550 | 16 | 46 | 0.0 | 0.0 | 0.00 | 0.00 | 1.07 | 75 | 1005.3 |
| 20260903030049 | 16 | 46 | 0.0 | 0.0 | 0.00 | 0.00 | 1.07 | 72 | 1004.9 |
| 20260903024531 | 17 | 46 | 0.0 | 0.0 | 0.00 | 0.00 | 1.07 | 70 | 1004.8 |
| 20260903023034 | 17 | 46 | 0.0 | 0.0 | 0.00 | 0.00 | 1.07 | 67 | 1004.7 |
| 20260903021516 | 18 | 46 | 1.6 | 0.0 | 0.00 | 0.00 | 1.07 | 65 | 1004.9 |
| 20260903020030 | 18 | 46 | 0.0 | 0.0 | 0.00 | 0.00 | 1.07 | 63 | 1004.9 |
| 20260903014613 | 19 | 46 | 0.0 | 0.0 | 0.00 | 0.00 | 1.07 | 61 | 1005.0 |
| 20260903013102 | 20 | 46 | 0.0 | 0.0 | 0.00 | 0.00 | 1.07 | 58 | 1004.9 |
| 20260903011550 | 20 | 46 | 0.0 | 0.0 | 0.00 | 0.00 | 1.07 | 55 | 1004.8 |
| 20260903010049 | 21 | 46 | 0.0 | 0.0 | 0.00 | 0.00 | 1.07 | 52 | 1004.9 |
| 20260903004519 | 21 | 46 | 0.0 | 0.0 | 0.00 | 0.00 | 1.07 | 51 | 1004.9 |
| 20260903003017 | 21 | 46 | 1.6 | 0.0 | 0.00 | 0.00 | 1.07 | 52 | 1004.9 |
| 20260903001602 | 21 | 46 | 0.0 | 0.0 | 0.00 | 0.00 | 1.07 | 51 | 1004.8 |
| 20260903000057 | 21 | 34 | 1.6 | 0.0 | 0.00 | 0.00 | 1.07 | 53 | 1005.0 |
| 20260902234542 | 21 | 56 | 1.6 | 0.0 | 0.00 | 0.00 | 1.07 | 54 | 1005.1 |
| 20260902233038 | 21 | 56 | 3.2 | 0.0 | 0.00 | 0.00 | 1.07 | 55 | 1005.4 |
| 20260902231539 | 21 | 55 | 1.6 | 0.0 | 0.00 | 0.00 | 1.04 | 55 | 1005.5 |
| 20260902230021 | 20 | 55 | 1.6 | 0.0 | 0.00 | 0.00 | 1.04 | 57 | 1005.7 |
| 20260902224518 | 20 | 61 | 3.2 | 0.0 | 0.00 | 0.00 | 1.04 | 58 | 1005.8 |
| 20260902223027 | 20 | 65 | 1.6 | 0.0 | 0.00 | 0.00 | 1.04 | 59 | 1006.0 |
| 20260902221519 | 20 | 65 | 1.6 | 0.0 | 0.00 | 0.00 | 1.04 | 61 | 1006.2 |
| 20260902220009 | 19 | 65 | 1.6 | 0.0 | 0.00 | 0.00 | 1.04 | 62 | 1006.4 |
| 20260902214516 | 18 | 65 | 3.2 | 0.0 | 0.00 | 0.00 | 1.04 | 65 | 1006.6 |
| 20260902213008 | 18 | 65 | 4.8 | 0.0 | 0.00 | 0.00 | 1.04 | 66 | 1006.8 |
| 20260902211544 | 17 | 70 | 3.2 | 0.0 | 0.00 | 0.00 | 1.04 | 68 | 1007.0 |
| 20260902210042 | 17 | 85 | 6.4 | 0.0 | 0.00 | 0.00 | 1.04 | 68 | 1007.2 |
| 20260902204525 | 16 | 68 | 3.2 | 0.0 | 0.00 | 0.00 | 1.04 | 73 | 1007.2 |
| 20260902203024 | 16 | 76 | 4.8 | 0.0 | 0.00 | 0.00 | 1.04 | 75 | 1007.4 |
| 20260902201503 | 15 | 88 | 1.6 | 0.0 | 0.00 | 0.00 | 0.99 | 82 | 1007.6 |
| 20260902200003 | 14 | 90 | 1.6 | 0.0 | 0.00 | 0.00 | 0.97 | 88 | 1007.8 |
| 20260902194600 | 13 | 94 | 3.2 | 0.0 | 0.00 | 0.00 | 0.94 | 92 | 1007.9 |
| 20260902193044 | 12 | 101 | 4.8 | 0.0 | 0.00 | 0.00 | 0.89 | 92 | 1008.3 |
| 20260902191536 | 12 | 132 | 0.0 | 0.0 | 0.00 | 0.00 | 0.84 | 93 | 1008.4 |
| 20260902190017 | 12 | 136 | 0.0 | 0.0 | 0.00 | 0.00 | 0.79 | 93 | 1008.4 |
| 20260902184514 | 12 | 136 | 0.0 | 0.0 | 0.00 | 0.00 | 0.76 | 93 | 1008.4 |
| 20260902183054 | 11 | 136 | 0.0 | 0.0 | 0.00 | 0.00 | 0.71 | 93 | 1008.4 |
| 20260902181553 | 11 | 136 | 1.6 | 0.0 | 0.00 | 0.00 | 0.64 | 93 | 1008.7 |
| 20260902180036 | 11 | 134 | 6.4 | 0.0 | 0.00 | 0.00 | 0.58 | 92 | 1008.3 |
| 20260902174534 | 10 | 59 | 11.3 | 0.0 | 0.00 | 0.00 | 0.51 | 92 | 1007.6 |
| 20260902173021 | 10 | 57 | 8.0 | 0.0 | 0.00 | 0.00 | 0.43 | 91 | 1008.0 |
| 20260902171513 | 10 | 85 | 0.0 | 0.0 | 0.00 | 0.00 | 0.38 | 91 | 1009.6 |
| 20260902170100 | 10 | 85 | 0.0 | 0.0 | 0.00 | 0.00 | 0.30 | 90 | 1009.2 |
| 20260902164559 | 10 | 86 | 4.8 | 0.0 | 0.00 | 0.00 | 0.25 | 90 | 1009.5 |
| 20260902163056 | 10 | 122 | 1.6 | 0.0 | 0.00 | 0.00 | 0.18 | 89 | 1009.3 |
| 20260902161558 | 10 | 124 | 0.0 | 0.0 | 0.00 | 0.00 | 0.15 | 88 | 1009.1 |
| 20260902160107 | 10 | 123 | 0.0 | 0.0 | 0.00 | 0.00 | 0.10 | 87 | 1008.6 |
| 20260902154600 | 11 | 123 | 0.0 | 0.0 | 0.00 | 0.00 | 0.05 | 85 | 1008.7 |
| 20260902153054 | 11 | 123 | 1.6 | 0.0 | 0.00 | 0.00 | 0.03 | 84 | 1009.3 |
| 20260902151553 | 11 | 80 | 1.6 | 0.0 | 0.00 | 0.00 | 0.03 | 83 | 1008.3 |
| 20260902150031 | 11 | 88 | 0.0 | 0.0 | 0.00 | 0.00 | 0.00 | 85 | 1007.9 |
| 20260902144527 | 11 | 88 | 0.0 | 0.0 | 0.00 | 0.00 | 0.00 | 85 | 1007.5 |
| 20260902143010 | 11 | 88 | 0.0 | 0.0 | 0.00 | 0.00 | 0.00 | 86 | 1007.4 |
| 20260902141506 | 10 | 88 | 0.0 | 0.0 | 0.00 | 0.00 | 0.00 | 86 | 1006.6 |
| 20260902140047 | 10 | 88 | 0.0 | 0.0 | 0.00 | 0.00 | 0.03 | 86 | 1006.5 |
| 20260902134545 | 10 | 88 | 0.0 | 0.0 | 0.00 | 0.00 | 0.03 | 85 | 1005.9 |
| 20260902133029 | 11 | 88 | 0.0 | 0.0 | 0.00 | 0.00 | 0.03 | 85 | 1005.8 |
| 20260902131536 | 11 | 88 | 0.0 | 0.0 | 0.00 | 0.00 | 0.03 | 84 | 1005.6 |
| 20260902130010 | 11 | 88 | 0.0 | 0.0 | 0.00 | 0.00 | 0.03 | 85 | 1005.4 |
| 20260902124514 | 11 | 88 | 0.0 | 0.0 | 0.00 | 0.00 | 0.03 | 86 | 1005.3 |
| 20260902123053 | 10 | 88 | 0.0 | 0.0 | 0.00 | 0.00 | 0.03 | 86 | 1005.1 |
| 20260902121552 | 10 | 88 | 0.0 | 0.0 | 0.00 | 0.00 | 0.03 | 86 | 1004.9 |
| 20260902120037 | 10 | 88 | 0.0 | 0.0 | 0.00 | 0.00 | 0.03 | 86 | 1004.8 |
| 20260902114541 | 10 | 88 | 0.0 | 0.0 | 0.00 | 0.00 | 0.03 | 85 | 1004.6 |
| 20260902113016 | 10 | 88 | 0.0 | 0.0 | 0.00 | 0.00 | 0.03 | 85 | 1004.5 |
| 20260902111516 | 10 | 88 | 0.0 | 0.0 | 0.00 | 0.00 | 0.03 | 85 | 1004.5 |
| 20260902104618 | 10 | 88 | 0.0 | 0.0 | 0.00 | 0.00 | 0.03 | 84 | 1004.3 |
| 20260902103040 | 10 | 88 | 0.0 | 0.0 | 0.00 | 0.00 | 0.03 | 83 | 1004.2 |
| 20260902101540 | 10 | 88 | 0.0 | 0.0 | 0.00 | 0.00 | 0.03 | 84 | 1004.1 |
| 20260902100022 | 10 | 88 | 0.0 | 0.0 | 0.00 | 0.00 | 0.03 | 83 | 1004.1 |
| 20260902094521 | 10 | 88 | 0.0 | 0.0 | 0.00 | 0.00 | 0.03 | 82 | 1004.1 |
| 20260902093002 | 11 | 88 | 0.0 | 0.0 | 0.00 | 0.00 | 0.03 | 83 | 1004.2 |
| 20260902091501 | 11 | 88 | 0.0 | 0.0 | 0.00 | 0.00 | 0.03 | 82 | 1004.4 |
| 20260902090041 | 11 | 88 | 0.0 | 0.0 | 0.00 | 0.00 | 0.03 | 81 | 1004.8 |
| 20260902084540 | 11 | 88 | 0.0 | 0.0 | 0.00 | 0.00 | 0.03 | 80 | 1005.0 |
| 20260902083028 | 11 | 88 | 0.0 | 0.0 | 0.00 | 0.00 | 0.03 | 76 | 1004.9 |
| 20260902081527 | 12 | 88 | 0.0 | 0.0 | 0.00 | 0.00 | 0.03 | 74 | 1004.9 |
| 20260902080027 | 13 | 88 | 0.0 | 0.0 | 0.00 | 0.00 | 0.03 | 72 | 1004.9 |
| 20260902074527 | 15 | 88 | 0.0 | 0.0 | 0.00 | 0.00 | 0.03 | 63 | 1004.9 |
| 20260902073027 | 17 | 88 | 0.0 | 0.0 | 0.00 | 0.00 | 0.03 | 59 | 1005.0 |
| 20260902071533 | 18 | 88 | 1.6 | 0.0 | 0.00 | 0.00 | 0.03 | 57 | 1005.0 |
| 20260902070026 | 18 | 89 | 4.8 | 0.0 | 0.00 | 0.00 | 0.03 | 58 | 1004.9 |
| 20260902064524 | 17 | 34 | 1.6 | 0.0 | 0.00 | 0.00 | 0.03 | 62 | 1005.0 |
| 20260902063005 | 16 | 34 | 1.6 | 0.0 | 0.00 | 0.00 | 0.03 | 66 | 1005.2 |
| 20260902061506 | 14 | 32 | 0.0 | 0.0 | 0.00 | 0.00 | 0.03 | 75 | 1005.3 |
| 20260902060111 | 14 | 32 | 1.6 | 0.0 | 0.00 | 0.00 | 0.03 | 73 | 1005.2 |
| 20260902054547 | 15 | 37 | 0.0 | 0.0 | 0.00 | 0.00 | 0.03 | 72 | 1005.3 |
| 20260902053029 | 15 | 37 | 0.0 | 0.0 | 0.00 | 0.00 | 0.03 | 70 | 1005.8 |
| 20260902051529 | 15 | 37 | 0.0 | 0.0 | 0.00 | 0.00 | 0.03 | 69 | 1005.8 |